15min,AgWx,beryljct,423,22FEB2019:00:00:00,21.9,12.66,20.9,20.4,20.3,20.5,19.9,85,86,84,0.323,16.4,16.8,15.9,7.125,5.8,58,8.0,8.2,-0.00003,-0.00002,.,33.3,24,0,0,35.5,10.87,0.00,0.00
15min,AgWx,beryljct,423,22FEB2019:00:15:00,22.2,12.78,21.1,20.5,20.4,20.6,20.3,87,87,86,0.325,17.0,17.3,16.7,9.45,7.5,75,6.2,9.8,-0.00002,-0.00001,.,33.3,24,0,0,35.6,10.87,0.00,0.00
15min,AgWx,beryljct,423,22FEB2019:00:30:00,22.5,12.8,21.4,20.6,20.6,20.8,20.4,85,86,84,0.320,16.7,16.9,16.5,10.57,8.3,62,6.1,10.6,-0.00000,0.00000,.,33.2,24,0,0,35.7,10.87,0.00,0.00
15min,AgWx,beryljct,423,22FEB2019:00:45:00,22.7,12.78,21.3,20.7,20.7,20.9,20.6,82,84,81,0.310,16.2,16.6,15.7,8.55,9.1,44,7.8,11.5,0.00001,0.00002,.,33.3,25,0,0,35.7,10.87,0.00,0.00
15min,AgWx,beryljct,423,22FEB2019:01:00:00,22.8,12.78,21.1,20.4,20.6,20.8,20.3,83,85,81,0.321,16.1,16.6,15.8,8.92,8.4,45,4.9,11.1,0.00001,0.00001,.,33.3,24,0,0,35.8,10.87,0.00,0.00
15min,AgWx,beryljct,423,22FEB2019:01:15:00,22.8,12.78,20.0,19.5,20.2,20.5,19.5,84,85,84,0.309,16.2,16.6,15.7,6.818,7.6,45,7.1,10.3,-0.00001,-0.00000,.,33.2,24,0,0,35.5,10.87,0.00,0.00
15min,AgWx,beryljct,423,22FEB2019:01:30:00,22.3,12.76,17.8,17.6,18.7,19.6,17.6,86,87,85,0.291,15.3,15.9,14.3,4.976,5.6,55,5.8,7.1,-0.00003,-0.00003,.,33.2,24,0,0,35.7,10.87,0.00,0.00
15min,AgWx,beryljct,423,22FEB2019:01:45:00,21.5,12.75,17.4,16.7,17.1,17.6,16.7,88,90,87,0.289,14.2,14.5,13.9,6.423,5.3,48,4.0,6.5,-0.00004,-0.00004,.,33.2,24,0,0,35.5,10.87,0.00,0.00
15min,AgWx,beryljct,423,22FEB2019:02:00:00,20.5,12.75,15.7,15.8,16.3,16.8,15.7,90,90,90,0.279,13.8,14.3,13.3,4.209,5.6,30,6.5,6.9,-0.00004,-0.00004,.,33.3,24,0,0,35.5,10.87,0.00,0.00
15min,AgWx,beryljct,423,22FEB2019:02:15:00,19.7,12.71,18.0,17.2,16.1,17.2,15.4,91,92,90,0.300,13.9,15.1,13.0,6.752,5.6,55,18,7.1,-0.00004,-0.00004,.,33.2,24,0,0,35.5,10.88,0.00,0.00
15min,AgWx,beryljct,423,22FEB2019:02:30:00,19.8,12.59,18.7,18.1,17.7,18.1,17.1,91,91,90,0.308,15.5,15.8,15.0,7.453,7.8,66,5.3,9.7,-0.00002,-0.00002,.,33.2,24,0,0,35.7,10.87,0.00,0.00
15min,AgWx,beryljct,423,22FEB2019:02:45:00,20.2,12.58,19.4,18.4,18.2,18.4,18.0,89,90,88,0.305,15.6,15.7,15.3,7.826,7.5,59,6.3,9.0,-0.00002,-0.00002,.,33.3,24,0,0,35.6,10.88,0.00,0.00
15min,AgWx,beryljct,423,22FEB2019:03:00:00,20.4,12.57,19.2,18.5,18.4,18.6,18.2,88,89,87,0.310,15.4,15.9,15.0,7.497,7.2,71,6.2,9.2,-0.00002,-0.00002,.,33.2,24,0,0,35.6,10.87,0.00,0.00
15min,AgWx,beryljct,423,22FEB2019:03:15:00,20.8,12.55,19.4,18.8,18.7,19.0,18.4,89,90,88,0.313,16.1,16.3,15.7,8.22,8.5,64,5.4,10.6,-0.00002,-0.00001,.,33.3,24,0,0,35.5,10.87,0.00,0.00
15min,AgWx,beryljct,423,22FEB2019:03:30:00,21.1,12.69,19.0,18.5,18.8,19.0,18.5,90,90,89,0.315,16.3,16.5,16.1,6.27,7.1,57,6.2,9.2,-0.00003,-0.00003,.,33.3,24,0,0,35.7,10.87,0.00,0.00
15min,AgWx,beryljct,423,22FEB2019:03:45:00,21.2,12.68,18.7,18.0,18.2,18.6,18.0,91,91,90,0.310,16.0,16.3,15.7,5.765,6.0,63,5.7,7.9,-0.00004,-0.00004,.,33.3,24,0,0,35.6,10.88,0.00,0.00
15min,AgWx,beryljct,423,22FEB2019:04:00:00,21.2,12.68,19.0,18.5,18.3,18.5,18.0,91,91,91,0.316,16.1,16.3,15.8,5.612,6.0,65,6.4,7.8,-0.00004,-0.00004,.,33.3,24,0,0,35.6,10.87,0.00,0.00
15min,AgWx,beryljct,423,22FEB2019:04:15:00,21.2,12.66,18.4,18.0,18.4,18.6,17.9,90,91,90,0.305,16.0,16.4,15.4,6.84,6.8,47,10,9.1,-0.00003,-0.00003,.,33.3,24,0,0,35.5,10.88,0.00,0.00
15min,AgWx,beryljct,423,22FEB2019:04:30:00,21.0,12.64,18.1,17.5,17.7,18.0,17.5,90,90,90,0.300,15.3,15.5,15.1,7.212,7.2,37,4.8,8.3,-0.00003,-0.00002,.,33.2,25,0,0,35.4,10.87,0.00,0.00
15min,AgWx,beryljct,423,22FEB2019:04:45:00,20.5,12.64,16.8,16.5,17.1,17.5,16.5,90,90,90,0.286,14.6,15.2,13.9,5.985,6.6,28,6.5,8.6,-0.00003,-0.00003,.,33.2,24,0,0,35.5,10.88,0.00,0.00
15min,AgWx,beryljct,423,22FEB2019:05:00:00,19.9,12.63,15.5,15.4,16.0,16.6,15.4,90,90,89,0.272,13.4,14.0,12.8,4.845,5.7,32,4.9,6.4,-0.00003,-0.00003,.,33.3,24,0,0,35.6,10.87,0.00,0.00
15min,AgWx,beryljct,423,22FEB2019:05:15:00,19.1,12.61,16.3,15.4,15.2,15.4,14.8,89,90,89,0.272,12.6,12.9,12.2,6.204,5.4,43,4.5,6.8,-0.00004,-0.00004,.,33.3,24,0,0,35.6,10.87,0.00,0.00
15min,AgWx,beryljct,423,22FEB2019:05:30:00,18.7,12.46,16.3,15.9,16.0,16.4,15.4,88,89,88,0.274,13.1,13.5,12.8,6.029,6.1,46,4.0,7.2,-0.00003,-0.00003,.,33.2,24,0,0,35.7,10.87,0.00,0.00
15min,AgWx,beryljct,423,22FEB2019:05:45:00,18.5,12.44,16.2,15.4,15.4,15.9,15.2,88,88,87,0.266,12.5,13.0,12.2,6.993,6.3,41,5.9,7.0,-0.00002,-0.00002,.,33.2,24,0,0,35.7,10.87,0.00,0.00
15min,AgWx,beryljct,423,22FEB2019:06:00:00,18.3,12.43,15.4,14.8,15.2,15.5,14.7,87,87,86,0.255,11.9,12.4,11.2,7.497,7.0,46,4.7,8.0,-0.00002,-0.00001,.,33.2,24,0,0,35.4,10.88,0.01,0.00
15min,AgWx,beryljct,423,22FEB2019:06:15:00,17.7,12.42,13.6,13.6,14.1,14.8,13.5,86,87,85,0.243,10.6,11.3,10.1,5.086,5.7,54,8.6,7.4,-0.00002,-0.00002,.,33.3,24,0,0,35.5,10.88,0.00,0.00
15min,AgWx,beryljct,423,22FEB2019:06:30:00,16.6,12.41,13.1,12.5,12.7,13.5,12.2,88,90,86,0.241,9.7,10.2,9.2,5.524,5.7,72,4.5,7.1,-0.00003,-0.00003,.,33.2,25,0,0,35.6,10.88,0.00,0.00
15min,AgWx,beryljct,423,22FEB2019:06:45:00,15.9,12.53,13.0,12.1,12.0,12.6,11.7,90,90,90,0.236,9.6,10.2,9.2,5.459,5.4,61,6.3,7.1,0.00005,0.00008,.,33.2,24,0,0,35.5,10.88,0.00,0.00
15min,AgWx,beryljct,423,22FEB2019:07:00:00,15.8,12.53,16.0,15.1,13.6,15.1,12.1,89,90,86,0.258,10.9,11.7,9.7,8.18,6.9,60,6.2,8.5,0.00006,0.00011,.,33.3,24,0,0,35.8,10.87,0.00,0.00
15min,AgWx,beryljct,423,22FEB2019:07:15:00,16.4,12.53,16.4,15.6,15.5,15.7,15.1,85,86,84,0.258,11.7,11.9,11.5,9.16,8.2,56,5.4,10.1,0.00010,0.00018,.,33.2,24,1,0,35.6,10.87,0.00,0.00
15min,AgWx,beryljct,423,22FEB2019:07:30:00,17.1,12.53,15.8,15.0,15.3,15.7,15.0,83,84,82,0.245,11.0,11.6,10.4,11.09,9.4,63,7.1,13.0,0.00013,0.00022,.,33.2,24,6,0,35.7,10.88,0.00,0.00
15min,AgWx,beryljct,423,22FEB2019:07:45:00,17.6,12.54,16.8,16.2,15.7,16.2,15.0,80,82,79,0.250,10.7,11.0,10.5,12.34,12.0,54,5.2,15.1,0.00020,0.00032,.,33.2,24,24,0,35.6,10.87,0.00,0.00
15min,AgWx,beryljct,423,22FEB2019:08:00:00,18.1,12.55,17.6,16.8,16.5,16.8,16.1,79,80,79,0.260,11.2,11.8,10.9,11.14,11.2,59,5.5,13.5,0.00025,0.00038,.,33.2,24,50,0,35.8,10.87,0.00,0.00
15min,AgWx,beryljct,423,22FEB2019:08:15:00,18.7,12.58,17.2,17.0,16.9,17.1,16.8,81,82,80,0.267,12.1,12.4,11.8,9.6,10.6,55,5.7,12.8,0.00029,0.00041,.,33.2,24,75,0,35.6,10.87,0.00,0.00
15min,AgWx,beryljct,423,22FEB2019:08:30:00,19.3,12.61,17.2,16.7,16.7,17.0,16.6,83,85,82,0.273,12.6,13.0,12.2,8.07,9.1,61,6.6,11.6,0.00033,0.00043,.,33.2,24,117,0,35.9,10.87,0.00,0.00
15min,AgWx,beryljct,423,22FEB2019:08:45:00,19.9,12.73,17.6,17.0,16.8,17.1,16.7,85,86,85,0.277,13.2,13.3,13.0,8.75,9.0,61,6.3,11.0,0.00038,0.00047,.,33.2,24,157,0,35.8,10.87,0.00,0.00
15min,AgWx,beryljct,423,22FEB2019:09:00:00,20.6,12.68,17.7,17.1,17.2,17.3,17.0,85,85,85,0.278,13.4,13.5,13.3,8.68,9.7,53,7.4,12.7,0.00045,0.00056,.,33.2,24,204,0,35.6,10.87,0.00,0.00
15min,AgWx,beryljct,423,22FEB2019:09:15:00,21.3,12.76,18.0,17.4,17.3,17.4,17.1,85,85,84,0.280,13.4,13.6,13.2,8.79,9.9,58,5.8,11.8,0.00051,0.00062,.,33.2,24,239,0,36.0,10.87,0.00,0.00
15min,AgWx,beryljct,423,22FEB2019:09:30:00,21.9,13.01,18.3,17.7,17.5,17.7,17.4,84,84,84,0.281,13.5,13.7,13.4,9.86,11.0,55,6.1,13.4,0.00055,0.00067,.,33.3,24,262,0,35.6,10.87,0.00,0.00
15min,AgWx,beryljct,423,22FEB2019:09:45:00,22.4,13.17,18.6,18.1,17.9,18.1,17.7,84,84,83,0.285,13.8,14.0,13.6,12.85,11.1,51,6.2,13.3,0.00060,0.00073,.,33.3,24,286,0,35.8,10.87,0.00,0.00
15min,AgWx,beryljct,423,22FEB2019:10:00:00,23.0,13.43,19.2,18.7,18.4,18.7,18.1,83,83,82,0.290,14.0,14.4,13.9,11.64,11.5,48,6.2,14.4,0.00068,0.00082,.,33.2,24,327,0,35.8,10.87,0.00,0.00
15min,AgWx,beryljct,423,22FEB2019:10:15:00,23.7,13.85,19.4,19.0,18.8,19.0,18.7,82,82,81,0.288,14.2,14.4,14.0,9.08,11.0,44,8.5,13.4,0.00079,0.00093,.,33.2,24,377,0,35.8,10.87,0.00,0.00
15min,AgWx,beryljct,423,22FEB2019:10:30:00,24.7,14.89,19.7,19.4,19.3,19.5,18.9,81,81,80,0.290,14.3,14.7,14.0,10.33,11.1,45,6.3,13.8,0.00103,0.00120,.,33.2,26,520,0,38.0,10.87,0.00,0.00
15min,AgWx,beryljct,423,22FEB2019:10:45:00,25.6,14.91,20.1,19.7,19.4,19.8,19.3,80,80,79,0.291,14.1,14.5,13.8,11.55,11.8,49,7.7,14.2,0.00105,0.00123,.,33.3,26,530,0,37.6,10.87,0.00,0.00
15min,AgWx,beryljct,423,22FEB2019:11:00:00,26.3,14.79,20.3,20.1,19.8,20.2,19.5,79,80,79,0.293,14.4,15.0,14.1,11.73,11.7,49,8.4,14.2,0.00114,0.00133,.,33.2,25,577,0,38.8,10.87,0.00,0.00
15min,AgWx,beryljct,423,22FEB2019:11:15:00,27.0,14.78,20.5,20.2,19.9,20.3,19.5,79,80,78,0.293,14.4,15.1,13.9,12.67,11.1,48,8.7,13.6,0.00117,0.00136,.,33.3,26,573,0,38.6,10.87,0.00,0.00
15min,AgWx,beryljct,423,22FEB2019:11:30:00,27.9,14.79,21.0,20.7,20.5,20.8,20.2,77,78,76,0.294,14.6,14.9,14.2,11.16,11.4,51,7.6,14.3,0.00140,0.00162,.,33.3,25,698,0,41.5,10.87,0.00,0.00
15min,AgWx,beryljct,423,22FEB2019:11:45:00,28.9,14.79,21.5,21.4,21.1,21.4,20.7,76,78,75,0.297,14.8,15.3,14.4,13.85,11.2,53,8.2,13.9,0.00149,0.00172,.,33.2,25,723,0,42.4,10.87,0.00,0.00
15min,AgWx,beryljct,423,22FEB2019:12:00:00,29.8,14.76,22.3,21.8,21.6,22.1,21.2,75,77,74,0.302,14.9,15.9,14.4,11.99,11.3,53,9.1,15.0,0.00162,0.00187,.,33.2,25,776,0,44.6,10.86,0.00,0.00
15min,AgWx,beryljct,423,22FEB2019:12:15:00,30.6,14.75,22.5,21.9,21.9,22.1,21.7,76,77,75,0.309,15.5,16.1,15.0,12.39,11.4,56,8.7,14.0,0.00146,0.00170,.,33.2,25,693,0,44.7,10.86,0.00,0.00
15min,AgWx,beryljct,423,22FEB2019:12:30:00,30.9,14.31,22.6,22.4,22.2,22.8,21.7,75,77,73,0.302,15.5,15.9,14.9,12.74,13.2,54,8.8,16.8,0.00155,0.00181,.,33.2,24,763,0,43.5,10.86,0.00,0.00
15min,AgWx,beryljct,423,22FEB2019:12:45:00,31.1,14.31,22.9,22.5,22.4,22.7,22.2,74,76,73,0.303,15.5,16.1,15.0,16.86,13.3,51,11,16.9,0.00154,0.00181,.,33.2,24,749,0,42.6,10.86,0.00,0.00
15min,AgWx,beryljct,423,22FEB2019:13:00:00,31.0,14.34,22.8,22.5,22.5,22.7,22.4,73,74,72,0.302,15.1,15.5,14.8,13.04,14.6,52,7.9,18.0,0.00153,0.00182,.,33.2,25,756,0,40.7,10.86,0.00,0.00
15min,AgWx,beryljct,423,22FEB2019:13:15:00,31.1,14.32,23.4,23.0,22.9,23.2,22.5,74,75,73,0.312,15.8,16.5,15.2,12.45,13.0,55,8.1,17.3,0.00159,0.00187,.,33.2,25,757,0,41.0,10.86,0.00,0.00
15min,AgWx,beryljct,423,22FEB2019:13:30:00,31.3,14.38,23.2,23.0,23.0,23.2,22.8,73,75,71,0.301,15.7,16.2,15.0,12.23,13.2,62,7.8,17.1,0.00157,0.00184,.,33.2,25,740,0,40.7,10.86,0.00,0.00
15min,AgWx,beryljct,423,22FEB2019:13:45:00,31.4,14.27,24.1,23.5,23.1,23.5,22.9,72,73,70,0.312,15.4,15.9,14.8,11.99,12.3,63,9.7,14.8,0.00160,0.00189,.,33.2,24,730,0,40.5,10.86,0.00,0.00
15min,AgWx,beryljct,423,22FEB2019:14:00:00,31.5,14.28,23.7,23.1,23.1,23.6,22.9,73,74,72,0.303,15.7,16.2,15.2,16.22,13.1,64,8.0,17.3,0.00150,0.00178,.,33.2,25,700,0,39.5,10.86,0.00,0.00
15min,AgWx,beryljct,423,22FEB2019:14:15:00,31.4,14.41,24.1,23.6,23.3,23.6,23.0,71,73,67,0.298,15.1,15.9,14.2,13.37,13.7,60,7.1,17.4,0.00150,0.00180,.,33.2,24,692,0,37.3,10.85,0.00,0.00
15min,AgWx,beryljct,423,22FEB2019:14:30:00,31.4,14.29,24.2,23.8,23.8,24.0,23.6,67,70,66,0.288,14.6,15.3,13.9,12.39,13.9,53,7.7,16.5,0.00149,0.00182,.,33.2,24,662,0,36.8,10.85,0.00,0.00
15min,AgWx,beryljct,423,22FEB2019:14:45:00,31.6,14.29,24.5,24.0,24.0,24.2,23.7,67,69,65,0.290,14.7,15.2,13.7,15.78,13.4,51,8.3,17.8,0.00140,0.00172,.,33.2,25,606,0,36.2,10.85,0.00,0.00
15min,AgWx,beryljct,423,22FEB2019:15:00:00,31.7,14.4,24.4,24.1,24.1,24.5,23.9,65,66,64,0.287,14.0,14.7,13.5,14.6,14.9,50,7.9,17.7,0.00138,0.00174,.,33.2,25,594,0,35.6,10.85,0.00,0.00
15min,AgWx,beryljct,423,22FEB2019:15:15:00,31.6,14.29,24.2,23.9,24.0,24.3,23.9,65,66,63,0.283,13.8,14.5,13.0,15.85,14.3,55,7.5,18.4,0.00132,0.00167,.,33.2,24,559,0,35.6,10.85,0.00,0.00
15min,AgWx,beryljct,423,22FEB2019:15:30:00,31.6,14.36,24.6,24.1,24.1,24.3,23.8,65,67,63,0.289,14.0,14.6,13.2,14.71,14.0,57,6.4,18.3,0.00118,0.00152,.,33.2,24,485,0,35.5,10.85,0.00,0.00
15min,AgWx,beryljct,423,22FEB2019:15:45:00,31.3,14.12,24.7,24.2,24.1,24.3,24.0,65,68,63,0.280,14.2,15.1,13.5,13.9,12.8,56,7.1,16.9,0.00111,0.00143,.,33.2,25,451,0,35.5,10.85,0.00,0.00
15min,AgWx,beryljct,423,22FEB2019:16:00:00,31.3,14.31,24.7,24.2,24.3,24.5,24.1,64,66,63,0.290,14.0,14.6,13.4,11.31,12.6,57,7.3,15.6,0.00105,0.00137,.,33.2,24,412,0,35.4,10.85,0.00,0.00
15min,AgWx,beryljct,423,22FEB2019:16:15:00,31.2,14.27,24.6,24.3,24.3,24.5,24.2,64,66,63,0.286,14.0,14.6,13.4,10.17,12.5,58,8.1,15.5,0.00106,0.00139,.,33.2,24,418,0,35.5,10.85,0.00,0.00
15min,AgWx,beryljct,423,22FEB2019:16:30:00,31.1,14.29,24.8,24.1,24.1,24.5,23.9,65,67,63,0.294,14.2,14.8,13.4,14.56,12.0,59,6.2,15.2,0.00093,0.00123,.,33.2,24,361,0,35.5,10.85,0.00,0.00
15min,AgWx,beryljct,423,22FEB2019:16:45:00,30.9,14.29,24.6,23.9,23.9,24.1,23.8,66,68,65,0.288,14.3,14.7,13.9,12.69,12.1,62,6.0,15.2,0.00080,0.00109,.,33.2,25,311,0,35.4,10.85,0.00,0.00
15min,AgWx,beryljct,423,22FEB2019:17:00:00,30.6,14.33,24.7,23.9,23.9,24.1,23.8,66,67,65,0.293,14.2,14.5,13.9,13.44,12.7,54,5.7,15.3,0.00072,0.00102,.,33.2,24,269,0,35.3,10.85,0.00,0.00
15min,AgWx,beryljct,423,22FEB2019:17:15:00,30.1,14.12,23.8,23.5,23.7,23.9,23.5,68,69,67,0.294,14.5,14.8,14.3,11.55,11.5,54,6.6,14.4,0.00059,0.00085,.,33.2,24,217,0,35.6,10.85,0.00,0.00
15min,AgWx,beryljct,423,22FEB2019:17:30:00,29.5,14.34,23.3,23.0,23.3,23.5,22.9,68,69,68,0.293,14.4,14.7,14.2,9.69,11.0,56,5.4,13.6,0.00018,0.00020,.,33.2,24,166,0,35.5,10.85,0.00,0.00
15min,AgWx,beryljct,423,22FEB2019:17:45:00,28.8,13.8,23.1,22.4,22.8,23.2,22.3,69,70,68,0.289,14.2,14.5,14.0,9.01,10.4,64,5.9,13.1,0.00014,0.00016,.,33.2,24,120,0,35.4,10.84,0.00,0.00
15min,AgWx,beryljct,423,22FEB2019:18:00:00,27.6,13.29,22.1,21.7,22.0,22.4,21.7,70,71,70,0.284,13.8,14.2,13.6,5.744,7.5,63,6.4,10.9,0.00009,0.00011,.,33.2,24,69,0,35.5,10.85,0.00,0.00
15min,AgWx,beryljct,423,22FEB2019:18:15:00,26.0,13.11,20.9,20.4,20.8,21.7,20.4,72,73,71,0.273,13.3,13.8,12.8,5.283,6.0,79,6.7,7.8,0.00003,0.00004,.,33.2,24,14,0,35.4,10.85,0.00,0.00
15min,AgWx,beryljct,423,22FEB2019:18:30:00,24.2,13.03,20.7,19.9,20.0,20.4,19.8,73,74,72,0.271,12.9,13.3,12.5,4.319,6.0,79,5.7,8.5,0.00002,0.00003,.,33.2,24,6,0,35.6,10.85,0.00,0.00
15min,AgWx,beryljct,423,22FEB2019:18:45:00,22.7,13.01,19.3,19.5,19.8,20.2,19.4,73,74,73,0.267,12.7,13.2,12.1,5.765,5.1,69,6.5,7.8,-0.00000,0.00001,.,33.2,24,1,0,35.4,10.85,0.00,0.00
15min,AgWx,beryljct,423,22FEB2019:19:00:00,21.7,12.99,20.2,19.3,19.4,19.7,19.3,74,74,73,0.267,12.4,12.7,12.2,5.831,6.5,72,3.8,8.5,0.00002,0.00003,.,33.2,24,0,0,35.6,10.85,0.00,0.00
15min,AgWx,beryljct,423,22FEB2019:19:15:00,20.8,12.96,17.4,17.2,18.5,19.4,17.2,75,76,73,0.248,11.8,12.5,10.7,5.853,5.9,60,8.8,6.8,0.00001,0.00002,.,33.2,24,0,0,35.4,10.85,0.00,0.00
15min,AgWx,beryljct,423,22FEB2019:19:30:00,19.7,12.96,16.4,15.3,15.6,17.1,14.8,78,81,75,0.245,10.1,10.8,9.5,3.025,4.5,32,4.5,6.0,-0.00002,-0.00002,.,33.2,24,0,0,35.6,10.85,0.00,0.00
15min,AgWx,beryljct,423,22FEB2019:19:45:00,18.2,12.94,16.0,15.8,15.6,15.9,15.3,80,81,78,0.244,10.5,10.9,9.8,2.258,1.3,43,26,3.5,-0.00009,-0.00012,.,33.2,24,0,0,35.6,10.85,0.00,0.00
15min,AgWx,beryljct,423,22FEB2019:20:00:00,17.1,12.93,15.1,14.7,15.0,15.7,14.5,79,80,78,0.235,9.7,10.3,9.1,1.578,2.0,54,21,4.3,-0.00007,-0.00009,.,33.2,24,0,0,35.6,10.85,0.00,0.00
15min,AgWx,beryljct,423,22FEB2019:20:15:00,16.2,12.92,14.5,14.8,14.6,15.0,14.3,81,81,80,0.238,9.7,10.3,9.3,1.929,1.5,307,63,3.4,-0.00009,-0.00011,.,33.2,24,0,0,35.5,10.85,0.00,0.00
15min,AgWx,beryljct,423,22FEB2019:20:30:00,15.6,12.77,15.6,15.3,15.4,16.0,14.7,78,80,76,0.231,9.8,10.6,9.2,2.433,1.6,26,69,4.2,-0.00008,-0.00010,.,33.2,24,0,0,35.5,10.85,0.00,0.00
15min,AgWx,beryljct,423,22FEB2019:20:45:00,15.5,12.75,14.9,14.2,15.1,15.5,14.2,77,79,76,0.226,9.3,9.6,8.7,2.411,3.1,17,9.4,4.4,-0.00004,-0.00004,.,33.2,24,0,0,35.8,10.85,0.00,0.00
15min,AgWx,beryljct,423,22FEB2019:21:00:00,15.1,12.74,12.8,12.4,13.3,14.3,12.4,80,82,78,0.217,8.3,9.0,7.8,3.354,3.1,33,8.2,3.4,-0.00004,-0.00005,.,33.2,24,0,0,35.6,10.85,0.00,0.00
15min,AgWx,beryljct,423,22FEB2019:21:15:00,14.3,12.72,11.5,10.4,10.4,12.4,8.7,83,86,81,0.210,6.2,7.8,4.3,1.162,2.1,39,51,3.7,-0.00006,-0.00007,.,33.2,25,0,0,35.4,10.86,0.00,0.00
15min,AgWx,beryljct,423,22FEB2019:21:30:00,13.6,12.71,14.6,13.6,12.4,13.7,10.5,83,86,80,0.226,8.2,8.9,7.1,2.631,2.4,264,27,3.5,-0.00006,-0.00007,.,33.2,24,0,0,35.6,10.85,0.00,0.00
15min,AgWx,beryljct,423,22FEB2019:21:45:00,13.3,12.69,14.8,13.7,13.3,13.8,12.7,80,82,79,0.230,8.4,9.0,7.6,2.565,2.2,301,4.8,3.1,-0.00006,-0.00008,.,33.2,24,0,0,35.7,10.85,0.00,0.00
15min,AgWx,beryljct,423,22FEB2019:22:00:00,13.1,12.69,12.9,12.9,14.0,14.6,12.9,80,81,77,0.211,8.9,9.5,7.2,2.017,1.9,287,7.6,3.7,-0.00007,-0.00009,.,33.2,24,0,0,35.5,10.86,0.00,0.00
15min,AgWx,beryljct,423,22FEB2019:22:15:00,12.9,12.67,10.5,12.2,12.3,13.0,11.2,80,82,78,0.215,7.3,8.5,5.8,2.061,2.1,302,20,3.9,-0.00006,-0.00007,.,33.2,25,0,0,35.6,10.85,0.00,0.00
15min,AgWx,beryljct,423,22FEB2019:22:30:00,12.6,12.79,11.2,9.2,11.8,13.4,9.2,81,84,77,0.181,6.9,9.4,3.7,3.223,3.7,298,12,5.9,-0.00003,-0.00003,.,33.2,24,0,0,35.7,10.85,0.00,0.00
15min,AgWx,beryljct,423,22FEB2019:22:45:00,12.0,12.65,8.2,9.2,10.0,12.2,7.4,82,85,77,0.194,5.5,7.9,2.1,4.757,3.4,291,8.5,4.8,-0.00004,-0.00004,.,33.2,24,0,0,35.4,10.85,0.00,0.00
15min,AgWx,beryljct,423,22FEB2019:23:00:00,11.1,12.64,4.1,4.8,6.8,9.1,4.6,84,87,80,0.158,2.9,5.3,0.3,4.516,4.0,316,11,5.0,-0.00003,-0.00003,.,33.2,24,0,0,35.7,10.86,0.01,0.00
15min,AgWx,beryljct,423,22FEB2019:23:15:00,9.8,12.62,5.3,3.3,3.4,6.1,1.0,84,87,82,0.153,-0.3,2.8,-3.0,3.42,3.6,315,4.9,4.8,-0.00003,-0.00003,.,33.2,24,0,0,35.6,10.86,0.00,0.00
15min,AgWx,beryljct,423,22FEB2019:23:30:00,9.0,12.6,11.9,9.7,7.6,9.9,3.4,87,90,85,0.202,4.6,6.7,0.4,4.362,4.2,296,11,5.7,-0.00003,-0.00003,.,33.2,25,0,0,35.8,10.86,0.00,0.00
15min,AgWx,bigpiney,439,22FEB2019:00:00:00,9.2,12.69,7.7,6.9,6.3,7.0,6.0,75,76,75,0.158,0.1,1.0,-0.2,3.047,1.9,320,20,4.9,-0.00004,-0.00005,23.2,25.0,7,0,0,0.0,0.08,0.00,0.00
15min,AgWx,bigpiney,439,22FEB2019:00:15:00,9.5,12.69,8.3,7.8,7.6,7.9,7.0,75,76,75,0.162,1.3,1.5,0.9,3.749,4.1,302,7.4,5.8,-0.00001,-0.00001,23.2,25.1,7,0,0,0.0,0.08,0.00,0.00
15min,AgWx,bigpiney,439,22FEB2019:00:30:00,9.7,12.68,8.4,7.8,7.8,7.9,7.7,74,75,74,0.161,1.3,1.6,1.2,3.464,4.1,310,13,5.5,-0.00001,-0.00000,23.2,25.0,7,0,0,0.0,0.08,0.00,0.00
15min,AgWx,bigpiney,439,22FEB2019:00:45:00,10.0,12.66,8.8,8.4,8.2,8.4,7.8,74,74,74,0.164,1.6,1.8,1.3,4.341,4.5,315,6.1,5.7,-0.00000,0.00000,23.2,25.1,7,0,0,0.0,0.08,0.00,0.00
15min,AgWx,bigpiney,439,22FEB2019:01:00:00,10.3,12.67,8.7,8.3,8.3,8.4,8.3,74,75,74,0.167,1.8,2.1,1.7,4.823,4.5,317,5.7,6.0,-0.00000,0.00000,23.2,25.0,7,0,0,0.0,0.08,0.00,0.00
15min,AgWx,bigpiney,439,22FEB2019:01:15:00,10.5,12.66,8.5,8.1,8.2,8.4,8.1,75,76,75,0.167,2.0,2.2,1.8,5.261,5.1,331,6.1,6.6,0.00000,0.00001,23.2,25.1,7,0,0,0.0,0.08,0.00,0.00
15min,AgWx,bigpiney,439,22FEB2019:01:30:00,10.6,12.65,8.5,8.0,8.0,8.1,7.9,77,77,76,0.168,2.2,2.3,2.0,3.749,4.5,345,4.0,5.8,-0.00001,-0.00000,23.2,25.0,7,0,0,0.0,0.08,0.00,0.00
15min,AgWx,bigpiney,439,22FEB2019:01:45:00,10.7,12.64,8.7,8.2,8.1,8.2,7.9,77,77,77,0.170,2.3,2.5,2.2,3.793,3.7,339,6.0,4.7,-0.00002,-0.00001,23.2,25.0,7,0,0,0.0,0.08,0.00,0.00
15min,AgWx,bigpiney,439,22FEB2019:02:00:00,10.8,12.63,8.8,8.4,8.3,8.5,8.2,76,77,76,0.171,2.5,2.6,2.3,1.951,3.1,332,5.0,4.0,-0.00002,-0.00002,23.1,25.1,7,0,0,0.0,0.08,0.00,0.00
15min,AgWx,bigpiney,439,22FEB2019:02:15:00,10.9,12.63,9.0,8.4,8.4,8.5,8.4,77,78,77,0.174,2.8,3.1,2.6,4.209,2.6,340,13,6.4,-0.00004,-0.00004,23.1,25.0,7,0,0,0.0,0.08,0.00,0.00
15min,AgWx,bigpiney,439,22FEB2019:02:30:00,10.9,12.61,9.0,8.5,8.5,8.6,8.4,78,79,77,0.178,3.1,3.5,2.8,3.529,2.7,340,10,4.2,-0.00003,-0.00004,23.1,25.0,7,0,0,0.0,0.08,0.00,0.00
15min,AgWx,bigpiney,439,22FEB2019:02:45:00,11.0,12.61,9.1,8.7,8.7,8.8,8.5,79,79,78,0.178,3.4,3.5,3.3,2.938,3.5,332,8.4,4.3,-0.00002,-0.00002,23.1,25.1,7,0,0,0.0,0.08,0.00,0.00
15min,AgWx,bigpiney,439,22FEB2019:03:00:00,11.2,12.6,9.5,9.1,8.9,9.1,8.6,80,81,79,0.186,3.9,4.4,3.4,4.056,4.4,341,7.2,6.0,-0.00001,-0.00001,23.1,25.0,7,0,0,0.0,0.08,0.00,0.00
15min,AgWx,bigpiney,439,22FEB2019:03:15:00,11.3,12.6,9.2,8.8,8.9,9.1,8.8,82,83,81,0.189,4.6,4.8,4.4,3.727,3.8,319,9.0,6.2,-0.00003,-0.00003,23.1,25.0,7,0,0,0.0,0.08,0.00,0.00
15min,AgWx,bigpiney,439,22FEB2019:03:30:00,11.4,12.58,9.7,9.2,8.9,9.2,8.7,83,84,83,0.191,4.9,5.1,4.7,6.489,4.7,330,9.7,8.6,-0.00002,-0.00002,23.1,25.0,7,0,0,0.0,0.08,0.00,0.00
15min,AgWx,bigpiney,439,22FEB2019:03:45:00,11.5,12.58,9.6,9.0,9.1,9.2,9.0,83,83,82,0.190,4.8,5.1,4.7,2.981,4.6,345,7.3,6.9,-0.00002,-0.00002,23.1,25.0,7,0,0,0.0,0.08,0.00,0.00
15min,AgWx,bigpiney,439,22FEB2019:04:00:00,11.6,12.57,9.5,9.0,9.0,9.1,8.9,83,83,83,0.191,4.8,5.0,4.8,2.806,3.1,341,6.5,4.1,-0.00004,-0.00004,23.1,25.0,7,0,0,0.0,0.08,0.00,0.00
15min,AgWx,bigpiney,439,22FEB2019:04:15:00,11.6,12.55,9.3,8.9,9.0,9.1,8.9,83,84,83,0.191,4.9,5.1,4.8,2.587,2.8,357,8.9,4.6,-0.00004,-0.00004,23.1,25.1,7,0,0,0.0,0.08,0.00,0.00
15min,AgWx,bigpiney,439,22FEB2019:04:30:00,11.7,12.55,9.3,8.9,8.9,9.0,8.8,84,85,84,0.193,5.1,5.3,5.0,0,1.5,339,11,2.6,-0.00007,-0.00008,23.1,25.0,7,0,0,0.0,0.08,0.00,0.00
15min,AgWx,bigpiney,439,22FEB2019:04:45:00,11.7,12.52,9.4,8.9,8.9,9.0,8.9,85,86,85,0.196,5.4,5.5,5.2,0.636,0.6,30,21,1.4,-0.00009,-0.00014,23.1,25.1,7,0,0,0.0,0.08,0.00,0.00
15min,AgWx,bigpiney,439,22FEB2019:05:00:00,11.7,12.52,9.3,8.8,8.9,9.0,8.8,86,86,86,0.196,5.6,5.7,5.5,1.688,1.4,34,18,2.0,-0.00007,-0.00009,23.1,25.0,7,0,0,0.0,0.08,0.00,0.00
15min,AgWx,bigpiney,439,22FEB2019:05:15:00,11.8,12.51,9.3,8.8,8.8,8.9,8.7,87,87,86,0.197,5.6,5.7,5.5,0.68,1.3,23,19,2.2,-0.00007,-0.00009,23.1,25.0,7,0,0,0.0,0.08,0.00,0.00
15min,AgWx,bigpiney,439,22FEB2019:05:30:00,11.8,12.51,9.5,9.0,8.9,9.0,8.8,87,87,87,0.199,5.7,5.9,5.6,1.6,1.5,115,15,2.5,-0.00007,-0.00009,23.1,25.0,7,0,0,0.0,0.08,0.00,0.00
15min,AgWx,bigpiney,439,22FEB2019:05:45:00,11.8,12.5,9.3,8.9,9.0,9.1,8.9,87,87,86,0.198,5.8,5.8,5.7,0.614,1.2,108,20,1.6,-0.00008,-0.00010,23.1,25.0,7,0,0,0.0,0.08,0.00,0.00
15min,AgWx,bigpiney,439,22FEB2019:06:00:00,11.8,12.49,9.0,8.6,8.8,9.0,8.6,86,87,86,0.195,5.6,5.8,5.4,2.214,1.5,132,8.1,2.7,-0.00007,-0.00009,23.1,25.1,7,0,0,0.0,0.08,0.00,0.00
15min,AgWx,bigpiney,439,22FEB2019:06:15:00,11.7,12.48,8.7,8.2,8.4,8.6,8.2,87,87,86,0.192,5.2,5.5,5.0,2.368,2.4,142,5.0,2.9,-0.00005,-0.00006,23.1,25.0,7,0,0,0.0,0.08,0.00,0.00
15min,AgWx,bigpiney,439,22FEB2019:06:30:00,11.6,12.47,8.2,7.8,8.1,8.3,7.8,87,87,86,0.188,4.8,5.1,4.5,3.442,3.2,151,4.9,4.3,-0.00004,-0.00004,23.2,25.0,7,0,0,0.0,0.08,0.00,0.00
15min,AgWx,bigpiney,439,22FEB2019:06:45:00,11.3,12.46,8.1,7.7,7.7,7.8,7.6,86,86,86,0.186,4.4,4.6,4.3,5.02,4.3,156,4.8,5.6,-0.00003,-0.00003,23.2,25.1,7,0,0,0.0,0.08,0.00,0.00
15min,AgWx,bigpiney,439,22FEB2019:07:00:00,11.1,12.45,8.3,7.8,7.7,7.8,7.6,86,87,86,0.186,4.5,4.6,4.4,7.059,6.8,156,4.7,8.4,-0.00001,-0.00001,23.2,25.2,7,1,0,0.0,0.08,0.00,0.00
15min,AgWx,bigpiney,439,22FEB2019:07:15:00,10.9,12.46,8.1,7.7,7.7,7.8,7.6,86,86,85,0.185,4.3,4.4,4.1,7.147,7.4,154,6.0,9.1,-0.00000,0.00000,23.2,25.0,7,3,0,0.0,0.08,0.00,0.00
15min,AgWx,bigpiney,439,22FEB2019:07:30:00,10.9,12.49,7.9,7.5,7.6,7.7,7.5,85,86,85,0.182,4.1,4.2,4.0,5.809,7.4,138,8.5,9.2,-0.00001,0.00003,23.2,25.0,7,13,0,0.0,0.08,0.00,0.00
15min,AgWx,bigpiney,439,22FEB2019:07:45:00,10.8,12.53,8.0,7.6,7.5,7.6,7.5,86,86,85,0.184,4.1,4.2,4.0,3.508,4.8,117,6.0,7.2,-0.00004,-0.00000,23.2,25.1,7,39,0,0.0,0.08,0.00,0.00
15min,AgWx,bigpiney,439,22FEB2019:08:00:00,10.9,12.62,7.8,7.5,7.5,7.7,7.4,85,86,85,0.182,4.0,4.2,3.9,5.305,4.3,117,5.2,5.6,0.00004,0.00007,23.2,25.1,7,64,0,0.0,0.08,0.00,0.00
15min,AgWx,bigpiney,439,22FEB2019:08:15:00,10.9,12.68,7.4,7.1,7.3,7.5,7.1,85,85,85,0.179,3.8,4.0,3.6,4.801,4.4,111,4.9,5.9,0.00011,0.00015,23.2,25.1,7,71,0,0.0,0.08,0.00,0.00
15min,AgWx,bigpiney,439,22FEB2019:08:30:00,10.9,12.75,7.0,6.6,6.8,7.1,6.6,85,86,85,0.175,3.4,3.6,3.1,5.13,4.6,106,5.1,5.4,0.00014,0.00018,23.2,25.1,7,77,0,0.0,0.08,0.00,0.00
15min,AgWx,bigpiney,439,22FEB2019:08:45:00,10.9,12.82,5.4,5.4,5.9,6.6,5.3,85,85,85,0.166,2.4,3.2,1.8,3.814,4.1,92,7.4,4.9,0.00016,0.00020,23.2,25.0,7,79,0,0.0,0.08,0.00,0.00
15min,AgWx,bigpiney,439,22FEB2019:09:00:00,10.7,14.99,4.7,4.6,4.8,5.3,4.3,86,86,85,0.161,1.4,1.9,0.9,1.425,2.0,63,13,3.7,0.00024,0.00027,23.2,25.1,7,146,0,0.0,0.08,0.00,0.00